Time,TemperatureF,DewpointF,PressureIn,WindDirection,WindDirectionDegrees,WindSpeedMPH,WindSpeedGustMPH,Humidity,HourlyPrecipIn,Conditions,Clouds,dailyrainin,SoftwareType,DateUTC
2013-12-03 00:03:00,31.7,30.9,29.96,ENE,65,0.0,0.0,97,0.00,,OVC,0.00,VWS V14.00,2013-12-03 05:03:00,
2013-12-03 00:08:00,31.6,30.8,29.96,ENE,65,0.0,0.0,97,0.00,,OVC,0.00,VWS V14.00,2013-12-03 05:08:00,
2013-12-03 00:13:00,31.7,30.9,29.96,ENE,65,0.0,0.0,97,0.00,,OVC,0.00,VWS V14.00,2013-12-03 05:13:00,
2013-12-03 00:18:00,31.7,30.9,29.96,ENE,65,0.0,0.0,97,0.00,,OVC,0.00,VWS V14.00,2013-12-03 05:18:00,
2013-12-03 00:23:00,31.7,30.9,29.96,ENE,65,0.0,0.0,97,0.00,,OVC,0.00,VWS V14.00,2013-12-03 05:23:00,
2013-12-03 00:28:00,31.6,30.8,29.96,ENE,65,0.0,0.0,97,0.00,,OVC,0.00,VWS V14.00,2013-12-03 05:28:00,
2013-12-03 00:30:00,31.6,30.8,29.96,ENE,65,0.0,0.0,97,0.00,,OVC,0.00,VWS V14.00,2013-12-03 05:30:00,
2013-12-03 00:33:00,31.7,30.9,29.96,ENE,65,0.0,0.0,97,0.00,,OVC,0.00,VWS V14.00,2013-12-03 05:33:00,
2013-12-03 00:38:00,31.6,30.8,29.97,ENE,65,0.0,0.0,97,0.00,,OVC,0.00,VWS V14.00,2013-12-03 05:38:00,
2013-12-03 00:43:00,31.6,30.8,29.97,ENE,65,0.0,0.0,97,0.00,,OVC,0.00,VWS V14.00,2013-12-03 05:43:00,
2013-12-03 00:48:00,31.6,30.8,29.96,ENE,65,0.0,0.0,97,0.00,,OVC,0.00,VWS V14.00,2013-12-03 05:48:00,
2013-12-03 00:53:00,31.6,30.8,29.97,ENE,65,0.0,0.0,97,0.00,,OVC,0.00,VWS V14.00,2013-12-03 05:53:00,
2013-12-03 00:58:00,31.8,31.0,29.96,ENE,65,0.0,0.0,97,0.00,,OVC,0.00,VWS V14.00,2013-12-03 05:58:00,
2013-12-03 01:00:00,31.8,31.0,29.96,ENE,65,0.0,0.0,97,0.00,,OVC,0.00,VWS V14.00,2013-12-03 06:00:00,
2013-12-03 01:03:00,31.9,31.1,29.96,ENE,65,0.0,0.0,97,0.00,,OVC,0.00,VWS V14.00,2013-12-03 06:03:00,
2013-12-03 01:08:00,32.0,31.2,29.97,ENE,65,0.0,0.0,97,0.00,,OVC,0.00,VWS V14.00,2013-12-03 06:08:00,
2013-12-03 01:13:00,32.0,31.2,29.97,ENE,65,0.0,0.0,97,0.00,,OVC,0.00,VWS V14.00,2013-12-03 06:13:00,
2013-12-03 01:18:00,32.0,31.2,29.97,ENE,65,0.0,0.0,97,0.00,,OVC,0.00,VWS V14.00,2013-12-03 06:18:00,
2013-12-03 01:23:00,32.0,31.2,29.97,ENE,65,0.0,0.0,97,0.00,,OVC,0.00,VWS V14.00,2013-12-03 06:23:00,
2013-12-03 01:28:00,32.1,31.3,29.97,ENE,65,0.0,0.0,97,0.00,,OVC,0.00,VWS V14.00,2013-12-03 06:28:00,
2013-12-03 01:30:00,32.1,31.3,29.97,ENE,65,0.0,0.0,97,0.00,,OVC,0.00,VWS V14.00,2013-12-03 06:30:00,
2013-12-03 01:33:00,32.2,31.4,29.97,ENE,65,0.0,0.0,97,0.00,,OVC,0.00,VWS V14.00,2013-12-03 06:33:00,
2013-12-03 01:38:00,32.4,31.6,29.96,ENE,65,0.0,0.0,97,0.00,,OVC,0.00,VWS V14.00,2013-12-03 06:38:00,
2013-12-03 01:43:00,32.4,31.6,29.97,ENE,65,0.0,0.0,97,0.00,,OVC,0.00,VWS V14.00,2013-12-03 06:43:00,
2013-12-03 01:48:00,32.4,31.6,29.97,ENE,65,0.0,0.0,97,0.00,,OVC,0.00,VWS V14.00,2013-12-03 06:48:00,
2013-12-03 01:53:00,32.6,31.8,29.97,ENE,65,0.0,0.0,97,0.00,,OVC,0.00,VWS V14.00,2013-12-03 06:53:00,
2013-12-03 01:58:00,32.5,31.7,29.97,ENE,65,0.0,0.0,97,0.00,,OVC,0.00,VWS V14.00,2013-12-03 06:58:00,
2013-12-03 02:00:00,32.6,31.8,29.97,ENE,65,0.0,0.0,97,0.00,,OVC,0.00,VWS V14.00,2013-12-03 07:00:00,
2013-12-03 02:03:00,32.5,31.7,29.97,ENE,65,0.0,0.0,97,0.00,,OVC,0.00,VWS V14.00,2013-12-03 07:03:00,
2013-12-03 02:08:00,32.4,31.6,29.97,ENE,65,0.0,0.0,97,0.00,,OVC,0.00,VWS V14.00,2013-12-03 07:08:00,
2013-12-03 02:13:00,32.4,31.6,29.97,ENE,65,0.0,0.0,97,0.00,,OVC,0.00,VWS V14.00,2013-12-03 07:13:00,
2013-12-03 02:18:00,32.4,31.6,29.97,ENE,65,0.0,0.0,97,0.00,,OVC,0.00,VWS V14.00,2013-12-03 07:18:00,
2013-12-03 02:23:00,32.4,31.6,29.98,ENE,65,0.0,0.0,97,0.00,,OVC,0.00,VWS V14.00,2013-12-03 07:23:00,
2013-12-03 02:28:00,32.3,31.5,29.98,ENE,65,0.0,0.0,97,0.00,,OVC,0.00,VWS V14.00,2013-12-03 07:28:00,
2013-12-03 02:30:00,32.2,31.4,29.98,ENE,65,0.0,0.0,97,0.00,,OVC,0.00,VWS V14.00,2013-12-03 07:30:00,
2013-12-03 02:33:00,32.2,31.4,29.98,ENE,65,0.0,0.0,97,0.00,,OVC,0.00,VWS V14.00,2013-12-03 07:33:00,
2013-12-03 02:38:00,32.2,31.4,29.98,ENE,65,0.0,0.0,97,0.00,,OVC,0.00,VWS V14.00,2013-12-03 07:38:00,
2013-12-03 02:43:00,32.1,31.3,29.98,ENE,65,0.0,0.0,97,0.00,,OVC,0.00,VWS V14.00,2013-12-03 07:43:00,
2013-12-03 02:48:00,32.2,31.4,29.98,ENE,65,0.0,0.0,97,0.00,,OVC,0.00,VWS V14.00,2013-12-03 07:48:00,
2013-12-03 02:53:00,32.3,31.5,29.98,ENE,65,0.0,0.0,97,0.00,,OVC,0.00,VWS V14.00,2013-12-03 07:53:00,
2013-12-03 02:58:00,32.3,31.5,29.98,ENE,65,0.0,0.0,97,0.00,,OVC,0.00,VWS V14.00,2013-12-03 07:58:00,
2013-12-03 03:00:00,32.4,31.6,29.98,ENE,65,0.0,0.0,97,0.00,,OVC,0.00,VWS V14.00,2013-12-03 08:00:00,
2013-12-03 03:03:00,32.4,31.6,29.98,ENE,65,0.0,0.0,97,0.00,,OVC,0.00,VWS V14.00,2013-12-03 08:03:00,
2013-12-03 03:08:00,32.4,31.6,29.98,ENE,65,0.0,0.0,97,0.00,,OVC,0.00,VWS V14.00,2013-12-03 08:08:00,
2013-12-03 03:13:00,32.3,31.5,29.98,ENE,65,0.0,0.0,97,0.00,,OVC,0.00,VWS V14.00,2013-12-03 08:13:00,
2013-12-03 03:18:00,32.4,31.6,29.98,ENE,65,0.0,0.0,97,0.00,,OVC,0.00,VWS V14.00,2013-12-03 08:18:00,
2013-12-03 03:23:00,32.3,31.5,29.98,ENE,65,0.0,0.0,97,0.00,,OVC,0.00,VWS V14.00,2013-12-03 08:23:00,
2013-12-03 03:28:00,32.1,31.3,29.98,ENE,65,0.0,0.0,97,0.00,,OVC,0.00,VWS V14.00,2013-12-03 08:28:00,
2013-12-03 03:30:00,32.2,31.4,29.98,ENE,65,0.0,0.0,97,0.00,,OVC,0.00,VWS V14.00,2013-12-03 08:30:00,
2013-12-03 03:33:00,32.0,31.2,29.98,ENE,65,0.0,0.0,97,0.00,,OVC,0.00,VWS V14.00,2013-12-03 08:33:00,
2013-12-03 03:38:00,32.0,31.2,29.98,ENE,65,0.0,0.0,97,0.00,,OVC,0.00,VWS V14.00,2013-12-03 08:38:00,
2013-12-03 03:43:00,32.1,31.3,29.98,ENE,65,0.0,0.0,97,0.00,,OVC,0.00,VWS V14.00,2013-12-03 08:43:00,
2013-12-03 03:48:00,32.1,31.3,29.98,ENE,65,0.0,0.0,97,0.00,,OVC,0.00,VWS V14.00,2013-12-03 08:48:00,
2013-12-03 03:53:00,32.0,31.2,29.98,ENE,65,0.0,0.0,97,0.00,,OVC,0.00,VWS V14.00,2013-12-03 08:53:00,
2013-12-03 03:58:00,32.1,31.3,29.98,ENE,65,0.0,0.0,97,0.00,,OVC,0.00,VWS V14.00,2013-12-03 08:58:00,
2013-12-03 04:00:00,32.0,31.2,29.98,ENE,65,0.0,0.0,97,0.00,,OVC,0.00,VWS V14.00,2013-12-03 09:00:00,
2013-12-03 04:03:00,31.9,31.1,29.99,ENE,65,0.0,0.0,97,0.00,,OVC,0.00,VWS V14.00,2013-12-03 09:03:00,
2013-12-03 04:08:00,32.0,31.2,29.99,ENE,65,0.0,0.0,97,0.00,,OVC,0.00,VWS V14.00,2013-12-03 09:08:00,
2013-12-03 04:13:00,32.0,31.2,29.99,ENE,65,0.0,0.0,97,0.00,,OVC,0.00,VWS V14.00,2013-12-03 09:13:00,
2013-12-03 04:18:00,32.0,31.2,29.99,ENE,65,0.0,0.0,97,0.00,,OVC,0.00,VWS V14.00,2013-12-03 09:18:00,
2013-12-03 04:23:00,32.0,31.2,29.99,ENE,65,0.0,0.0,97,0.00,,OVC,0.00,VWS V14.00,2013-12-03 09:23:00,
2013-12-03 04:28:00,32.1,31.3,29.99,ENE,65,0.0,0.0,97,0.00,,OVC,0.00,VWS V14.00,2013-12-03 09:28:00,
2013-12-03 04:30:00,32.0,31.2,29.99,ENE,65,0.0,0.0,97,0.00,,OVC,0.00,VWS V14.00,2013-12-03 09:30:00,
2013-12-03 04:33:00,32.2,31.4,29.99,ENE,65,0.0,0.0,97,0.00,,OVC,0.00,VWS V14.00,2013-12-03 09:33:00,
2013-12-03 04:38:00,32.4,31.6,29.99,ENE,65,0.0,0.0,97,0.00,,OVC,0.00,VWS V14.00,2013-12-03 09:38:00,
2013-12-03 04:43:00,32.3,31.5,29.99,ENE,65,0.0,0.0,97,0.00,,OVC,0.00,VWS V14.00,2013-12-03 09:43:00,
2013-12-03 04:48:00,32.2,31.4,30.00,ENE,65,0.0,0.0,97,0.00,,OVC,0.00,VWS V14.00,2013-12-03 09:48:00,
2013-12-03 04:53:00,32.2,31.4,30.00,ENE,65,0.0,0.0,97,0.00,,OVC,0.00,VWS V14.00,2013-12-03 09:53:00,
2013-12-03 04:58:00,32.1,31.3,30.00,ENE,65,0.0,0.0,97,0.00,,OVC,0.00,VWS V14.00,2013-12-03 09:58:00,
2013-12-03 05:00:00,32.1,31.3,30.00,ENE,65,0.0,0.0,97,0.00,,OVC,0.00,VWS V14.00,2013-12-03 10:00:00,
2013-12-03 05:03:00,32.1,31.3,30.00,ENE,65,0.0,0.0,97,0.00,,OVC,0.00,VWS V14.00,2013-12-03 10:03:00,
2013-12-03 05:08:00,32.2,31.4,30.00,ENE,65,0.0,0.0,97,0.00,,OVC,0.00,VWS V14.00,2013-12-03 10:08:00,
2013-12-03 05:13:00,32.4,31.6,30.00,ENE,65,0.0,0.0,97,0.00,,OVC,0.00,VWS V14.00,2013-12-03 10:13:00,
2013-12-03 05:18:00,32.4,31.6,30.00,ENE,65,0.0,0.0,97,0.00,,OVC,0.00,VWS V14.00,2013-12-03 10:18:00,
2013-12-03 05:23:00,32.5,31.7,30.00,ENE,65,0.0,0.0,97,0.00,,OVC,0.00,VWS V14.00,2013-12-03 10:23:00,
2013-12-03 05:28:00,32.4,31.6,30.00,ENE,65,0.0,0.0,97,0.00,,OVC,0.00,VWS V14.00,2013-12-03 10:28:00,
2013-12-03 05:30:00,32.4,31.6,30.00,ENE,65,0.0,0.0,97,0.00,,OVC,0.00,VWS V14.00,2013-12-03 10:30:00,
2013-12-03 05:33:00,32.4,31.6,30.00,ENE,65,0.0,0.0,97,0.00,,OVC,0.00,VWS V14.00,2013-12-03 10:33:00,
2013-12-03 05:38:00,32.3,31.5,30.00,ENE,65,0.0,0.0,97,0.00,,OVC,0.00,VWS V14.00,2013-12-03 10:38:00,
2013-12-03 05:43:00,32.3,31.5,30.00,ENE,65,0.0,0.0,97,0.00,,OVC,0.00,VWS V14.00,2013-12-03 10:43:00,
2013-12-03 05:48:00,32.3,31.5,30.00,ENE,65,0.0,0.0,97,0.00,,OVC,0.00,VWS V14.00,2013-12-03 10:48:00,
2013-12-03 05:53:00,32.2,31.4,30.01,ENE,65,0.0,0.0,97,0.00,,OVC,0.00,VWS V14.00,2013-12-03 10:53:00,
2013-12-03 05:58:00,32.2,31.4,30.00,ENE,65,0.0,0.0,97,0.00,,OVC,0.00,VWS V14.00,2013-12-03 10:58:00,
2013-12-03 06:00:00,32.2,31.4,30.00,ENE,65,0.0,0.0,97,0.00,,OVC,0.00,VWS V14.00,2013-12-03 11:00:00,
2013-12-03 06:03:00,32.3,31.5,30.01,ENE,65,0.0,0.0,97,0.00,,OVC,0.00,VWS V14.00,2013-12-03 11:03:00,
2013-12-03 06:08:00,32.7,31.9,30.01,ENE,65,0.0,0.0,97,0.00,,OVC,0.00,VWS V14.00,2013-12-03 11:08:00,
2013-12-03 06:13:00,32.6,31.8,30.01,ENE,65,0.0,0.0,97,0.00,,OVC,0.00,VWS V14.00,2013-12-03 11:13:00,
2013-12-03 06:19:00,32.7,31.9,30.01,ENE,65,0.0,0.0,97,0.00,,OVC,0.00,VWS V14.00,2013-12-03 11:19:00,
2013-12-03 06:24:00,32.7,31.9,30.01,ENE,65,0.0,0.0,97,0.00,,OVC,0.00,VWS V14.00,2013-12-03 11:24:00,
2013-12-03 06:29:00,32.9,32.1,30.01,ENE,65,0.0,0.0,97,0.00,,OVC,0.00,VWS V14.00,2013-12-03 11:29:00,
2013-12-03 06:30:00,32.8,32.0,30.01,ENE,65,0.0,0.0,97,0.00,,OVC,0.00,VWS V14.00,2013-12-03 11:30:00,
2013-12-03 06:34:00,32.9,32.1,30.01,ENE,65,0.0,0.0,97,0.00,,OVC,0.00,VWS V14.00,2013-12-03 11:34:00,
2013-12-03 06:39:00,32.9,32.1,30.01,ENE,65,0.0,0.0,97,0.00,,OVC,0.00,VWS V14.00,2013-12-03 11:39:00,
2013-12-03 06:44:00,33.0,32.2,30.01,ENE,65,0.0,0.0,97,0.00,,OVC,0.00,VWS V14.00,2013-12-03 11:44:00,
2013-12-03 06:49:00,33.3,32.5,30.01,ENE,65,0.0,0.0,97,0.00,,OVC,0.00,VWS V14.00,2013-12-03 11:49:00,
2013-12-03 06:54:00,33.6,32.8,30.01,ENE,65,0.0,0.0,97,0.00,,OVC,0.00,VWS V14.00,2013-12-03 11:54:00,
2013-12-03 06:59:00,33.4,32.6,30.01,ENE,65,0.0,0.0,97,0.00,,OVC,0.00,VWS V14.00,2013-12-03 11:59:00,
2013-12-03 07:00:00,33.4,32.6,30.01,ENE,65,0.0,0.0,97,0.00,,OVC,0.00,VWS V14.00,2013-12-03 12:00:00,
2013-12-03 07:04:00,33.4,32.6,30.01,ENE,65,0.0,0.0,97,0.00,,OVC,0.00,VWS V14.00,2013-12-03 12:04:00,
2013-12-03 07:09:00,33.4,32.6,30.01,ENE,65,0.0,0.0,97,0.00,,OVC,0.00,VWS V14.00,2013-12-03 12:09:00,
2013-12-03 07:14:00,33.9,33.1,30.01,ENE,65,0.0,0.0,97,0.00,,OVC,0.00,VWS V14.00,2013-12-03 12:14:00,
2013-12-03 07:19:00,34.2,33.4,30.01,ENE,65,0.0,0.0,97,0.00,,OVC,0.00,VWS V14.00,2013-12-03 12:19:00,
2013-12-03 07:24:00,34.0,33.2,30.00,ENE,65,0.0,0.0,97,0.00,,OVC,0.00,VWS V14.00,2013-12-03 12:24:00,
2013-12-03 07:29:00,33.9,33.1,30.00,ENE,65,0.0,0.0,97,0.00,,OVC,0.00,VWS V14.00,2013-12-03 12:29:00,
2013-12-03 07:30:00,33.9,33.1,30.00,ENE,65,0.0,0.0,97,0.00,,OVC,0.00,VWS V14.00,2013-12-03 12:30:00,
2013-12-03 07:34:00,33.7,32.9,30.00,ENE,65,0.0,0.0,97,0.00,,OVC,0.00,VWS V14.00,2013-12-03 12:34:00,
2013-12-03 07:39:00,33.6,32.8,30.00,ENE,65,0.0,0.0,97,0.00,,OVC,0.00,VWS V14.00,2013-12-03 12:39:00,
2013-12-03 07:44:00,33.4,32.6,30.00,ENE,65,0.0,0.0,97,0.00,,OVC,0.00,VWS V14.00,2013-12-03 12:44:00,
2013-12-03 07:49:00,33.2,32.4,30.01,ENE,65,0.0,0.0,97,0.00,,OVC,0.00,VWS V14.00,2013-12-03 12:49:00,
2013-12-03 07:54:00,33.1,32.3,30.01,ENE,65,0.0,0.0,97,0.00,,OVC,0.00,VWS V14.00,2013-12-03 12:54:00,
2013-12-03 07:59:00,32.9,32.1,30.01,ENE,65,0.0,0.0,97,0.00,,OVC,0.00,VWS V14.00,2013-12-03 12:59:00,
2013-12-03 08:00:00,32.8,32.0,30.01,ENE,65,0.0,0.0,97,0.00,,OVC,0.00,VWS V14.00,2013-12-03 13:00:00,
2013-12-03 08:04:00,32.8,32.0,30.01,ENE,65,0.0,0.0,97,0.00,,OVC,0.00,VWS V14.00,2013-12-03 13:04:00,
2013-12-03 08:09:00,32.7,31.9,30.01,ENE,65,0.0,0.0,97,0.00,,OVC,0.00,VWS V14.00,2013-12-03 13:09:00,
2013-12-03 08:14:00,32.7,31.9,30.01,ENE,65,0.0,0.0,97,0.00,,OVC,0.00,VWS V14.00,2013-12-03 13:14:00,
2013-12-03 08:19:00,32.6,31.8,30.01,ENE,65,0.0,0.0,97,0.00,,OVC,0.00,VWS V14.00,2013-12-03 13:19:00,
2013-12-03 08:24:00,32.6,31.8,30.01,ENE,65,0.0,0.0,97,0.00,,OVC,0.00,VWS V14.00,2013-12-03 13:24:00,
2013-12-03 08:29:00,32.6,31.8,30.01,ENE,65,0.0,0.0,97,0.00,,OVC,0.00,VWS V14.00,2013-12-03 13:29:00,
2013-12-03 08:30:00,32.6,31.8,30.01,ENE,65,0.0,0.0,97,0.00,,OVC,0.00,VWS V14.00,2013-12-03 13:30:00,
2013-12-03 08:34:00,32.6,31.8,30.01,ENE,65,0.0,0.0,97,0.00,,OVC,0.00,VWS V14.00,2013-12-03 13:34:00,
2013-12-03 08:39:00,32.6,31.8,30.01,ENE,65,0.0,0.0,97,0.00,,OVC,0.00,VWS V14.00,2013-12-03 13:39:00,
2013-12-03 08:44:00,32.6,31.8,30.01,ENE,65,0.0,0.0,97,0.00,,OVC,0.00,VWS V14.00,2013-12-03 13:44:00,
2013-12-03 08:49:00,32.6,31.8,30.01,ENE,65,0.0,0.0,97,0.00,,OVC,0.00,VWS V14.00,2013-12-03 13:49:00,
2013-12-03 08:54:00,32.6,31.8,30.02,ENE,65,0.0,0.0,97,0.00,,OVC,0.00,VWS V14.00,2013-12-03 13:54:00,
2013-12-03 08:59:00,32.6,31.8,30.02,ENE,65,0.0,0.0,97,0.00,,OVC,0.00,VWS V14.00,2013-12-03 13:59:00,
2013-12-03 09:00:00,32.6,31.8,30.02,ENE,65,0.0,0.0,97,0.00,,OVC,0.00,VWS V14.00,2013-12-03 14:00:00,
2013-12-03 09:04:00,32.6,31.8,30.02,ENE,65,0.0,0.0,97,0.00,,OVC,0.00,VWS V14.00,2013-12-03 14:04:00,
2013-12-03 09:09:00,32.7,31.9,30.02,ENE,65,0.0,0.0,97,0.00,,OVC,0.00,VWS V14.00,2013-12-03 14:09:00,
2013-12-03 09:14:00,32.8,32.0,30.02,ENE,65,0.0,0.0,97,0.00,,OVC,0.00,VWS V14.00,2013-12-03 14:14:00,
2013-12-03 09:19:00,33.0,32.2,30.02,ENE,65,0.0,0.0,97,0.00,,OVC,0.00,VWS V14.00,2013-12-03 14:19:00,
2013-12-03 09:24:00,33.0,32.2,30.02,ENE,65,0.0,0.0,97,0.00,,OVC,0.00,VWS V14.00,2013-12-03 14:24:00,
2013-12-03 09:29:00,33.2,32.4,30.02,ENE,65,0.0,0.0,97,0.00,,OVC,0.00,VWS V14.00,2013-12-03 14:29:00,
2013-12-03 09:30:00,33.2,32.4,30.02,ENE,65,0.0,0.0,97,0.00,,OVC,0.00,VWS V14.00,2013-12-03 14:30:00,
2013-12-03 09:34:00,33.3,32.5,30.03,ENE,65,0.0,0.0,97,0.00,,OVC,0.00,VWS V14.00,2013-12-03 14:34:00,
2013-12-03 09:39:00,33.3,32.5,30.03,ENE,65,0.0,0.0,97,0.00,,OVC,0.00,VWS V14.00,2013-12-03 14:39:00,
2013-12-03 09:44:00,33.2,32.4,30.03,ENE,65,0.0,0.0,97,0.00,,OVC,0.00,VWS V14.00,2013-12-03 14:44:00,
2013-12-03 09:49:00,33.2,32.4,30.03,ENE,65,0.0,0.0,97,0.00,,OVC,0.00,VWS V14.00,2013-12-03 14:49:00,
2013-12-03 09:54:00,33.3,32.5,30.03,ENE,65,0.0,0.0,97,0.00,,OVC,0.00,VWS V14.00,2013-12-03 14:54:00,
2013-12-03 09:59:00,33.3,32.5,30.03,ENE,65,0.0,0.0,97,0.10,,OVC,0.10,VWS V14.00,2013-12-03 14:59:00,
2013-12-03 10:00:00,33.4,32.6,30.03,ENE,65,0.0,0.0,97,0.10,,OVC,0.10,VWS V14.00,2013-12-03 15:00:00,
2013-12-03 10:04:00,33.6,32.8,30.04,ENE,65,0.0,0.0,97,0.09,,OVC,0.10,VWS V14.00,2013-12-03 15:04:00,
2013-12-03 10:09:00,33.7,32.9,30.04,ENE,65,0.0,0.0,97,0.08,,OVC,0.10,VWS V14.00,2013-12-03 15:09:00,
2013-12-03 10:14:00,33.8,33.0,30.04,ENE,65,0.0,0.0,97,0.17,,OVC,0.20,VWS V14.00,2013-12-03 15:14:00,
2013-12-03 10:19:00,33.9,33.1,30.03,ENE,65,0.0,0.0,97,0.16,,OVC,0.20,VWS V14.00,2013-12-03 15:19:00,
2013-12-03 10:24:00,34.0,33.2,30.04,ENE,65,0.0,0.0,97,0.15,,OVC,0.20,VWS V14.00,2013-12-03 15:24:00,
2013-12-03 10:29:00,33.8,33.0,30.04,ENE,65,0.0,0.0,97,0.14,,OVC,0.20,VWS V14.00,2013-12-03 15:29:00,
2013-12-03 10:30:00,33.9,33.1,30.04,ENE,65,0.0,0.0,97,0.14,,OVC,0.20,VWS V14.00,2013-12-03 15:30:00,
2013-12-03 10:34:00,33.8,33.0,30.04,ENE,65,0.0,0.0,97,0.22,,OVC,0.30,VWS V14.00,2013-12-03 15:34:00,
2013-12-03 10:39:00,33.9,33.1,30.03,ENE,65,0.0,0.0,97,0.20,,OVC,0.30,VWS V14.00,2013-12-03 15:39:00,
2013-12-03 10:44:00,33.9,33.1,30.04,ENE,65,0.0,0.0,97,0.19,,OVC,0.30,VWS V14.00,2013-12-03 15:44:00,
2013-12-03 10:49:00,33.7,32.9,30.03,ENE,65,0.0,0.0,97,0.17,,OVC,0.40,VWS V14.00,2013-12-03 15:49:00,
2013-12-03 10:54:00,33.7,32.9,30.03,ENE,65,0.0,0.0,97,0.25,,OVC,0.40,VWS V14.00,2013-12-03 15:54:00,
2013-12-03 10:59:00,33.8,33.0,30.03,ENE,65,0.0,0.0,97,0.23,,OVC,0.40,VWS V14.00,2013-12-03 15:59:00,
2013-12-03 11:00:00,33.7,32.9,30.03,ENE,65,0.0,0.0,97,0.23,,OVC,0.40,VWS V14.00,2013-12-03 16:00:00,
2013-12-03 11:04:00,33.7,32.8,30.03,ENE,65,0.0,0.0,97,0.31,,OVC,0.50,VWS V14.00,2013-12-03 16:04:00,
2013-12-03 11:09:00,33.7,32.8,30.03,ENE,65,0.0,0.0,97,0.28,,OVC,0.50,VWS V14.00,2013-12-03 16:09:00,
2013-12-03 11:14:00,33.8,32.9,30.03,ENE,65,0.0,0.0,96,0.26,,OVC,0.50,VWS V14.00,2013-12-03 16:14:00,
2013-12-03 11:19:00,33.8,32.9,30.03,ENE,65,0.0,0.0,96,0.34,,OVC,0.60,VWS V14.00,2013-12-03 16:19:00,
2013-12-03 11:24:00,33.8,32.8,30.03,ENE,65,0.0,0.0,96,0.31,,OVC,0.60,VWS V14.00,2013-12-03 16:24:00,
2013-12-03 11:29:00,33.9,32.8,30.02,ENE,65,0.0,0.0,96,0.28,,OVC,0.60,VWS V14.00,2013-12-03 16:29:00,
2013-12-03 11:30:00,33.9,32.8,30.02,ENE,65,0.0,0.0,96,0.29,,OVC,0.60,VWS V14.00,2013-12-03 16:30:00,
2013-12-03 11:34:00,34.0,32.8,30.02,ENE,65,0.0,0.0,95,0.36,,OVC,0.70,VWS V14.00,2013-12-03 16:34:00,
2013-12-03 11:39:00,34.3,33.1,30.02,ENE,65,0.0,0.0,95,0.33,,OVC,0.70,VWS V14.00,2013-12-03 16:39:00,
2013-12-03 11:44:00,34.3,32.9,30.02,ENE,65,0.0,0.0,95,0.30,,OVC,0.70,VWS V14.00,2013-12-03 16:44:00,
2013-12-03 11:49:00,34.6,33.2,30.02,ENE,65,0.0,0.0,95,0.38,,OVC,0.80,VWS V14.00,2013-12-03 16:49:00,
2013-12-03 11:54:00,34.5,33.0,30.02,NW,308,0.0,4.2,94,0.35,,OVC,0.80,VWS V14.00,2013-12-03 16:54:00,
2013-12-03 11:59:00,34.7,33.1,30.02,NW,308,0.0,0.0,94,0.32,,OVC,0.80,VWS V14.00,2013-12-03 16:59:00,
2013-12-03 12:00:00,34.7,33.0,30.02,NW,308,0.0,4.2,94,0.32,,OVC,0.80,VWS V14.00,2013-12-03 17:00:00,
2013-12-03 12:04:00,34.7,32.8,30.02,WNW,294,2.2,3.8,93,0.29,,OVC,0.80,VWS V14.00,2013-12-03 17:04:00,
2013-12-03 12:09:00,34.8,32.9,30.02,WNW,297,0.0,3.8,93,0.37,,OVC,0.90,VWS V14.00,2013-12-03 17:09:00,
2013-12-03 12:14:00,34.8,32.7,30.02,WNW,297,0.0,3.8,92,0.34,,OVC,0.90,VWS V14.00,2013-12-03 17:14:00,
2013-12-03 12:19:00,34.9,32.7,30.02,WNW,302,3.2,5.3,92,0.31,,OVC,0.90,VWS V14.00,2013-12-03 17:19:00,
2013-12-03 12:24:00,34.7,32.4,30.02,WNW,300,3.1,5.3,91,0.38,,OVC,1.00,VWS V14.00,2013-12-03 17:24:00,
2013-12-03 12:29:00,34.9,32.8,30.02,NW,311,0.0,0.0,92,0.35,,OVC,1.00,VWS V14.00,2013-12-03 17:29:00,
2013-12-03 12:30:00,34.9,32.8,30.02,NW,311,0.0,5.3,92,0.36,,OVC,1.00,VWS V14.00,2013-12-03 17:30:00,
2013-12-03 12:34:00,34.9,32.7,30.02,WNW,298,4.8,4.8,92,0.33,,OVC,1.00,VWS V14.00,2013-12-03 17:34:00,
2013-12-03 12:39:00,34.9,32.5,30.02,West,276,0.0,5.2,91,0.30,,OVC,1.00,VWS V14.00,2013-12-03 17:39:00,
2013-12-03 12:44:00,34.9,32.5,30.02,WNW,287,2.7,5.2,91,0.37,,OVC,1.10,VWS V14.00,2013-12-03 17:44:00,
2013-12-03 12:49:00,34.9,32.2,30.02,WNW,302,0.7,5.2,90,0.34,,OVC,1.10,VWS V14.00,2013-12-03 17:49:00,
2013-12-03 12:54:00,34.8,32.1,30.02,West,274,2.6,5.3,90,0.32,,OVC,1.10,VWS V14.00,2013-12-03 17:54:00,
2013-12-03 12:59:00,34.8,32.1,30.02,NW,307,0.7,2.9,90,0.29,,OVC,1.10,VWS V14.00,2013-12-03 17:59:00,
2013-12-03 13:00:00,34.8,32.1,30.02,WNW,284,2.9,5.3,90,0.30,,OVC,1.10,VWS V14.00,2013-12-03 18:00:00,
2013-12-03 13:04:00,35.0,32.4,30.02,WNW,297,0.0,2.9,90,0.37,,OVC,1.20,VWS V14.00,2013-12-03 18:04:00,
2013-12-03 13:09:00,35.1,32.4,30.02,WNW,297,0.0,2.9,90,0.34,,OVC,1.20,VWS V14.00,2013-12-03 18:09:00,
2013-12-03 13:14:00,35.2,32.5,30.02,South,187,0.0,2.9,90,0.31,,OVC,1.20,VWS V14.00,2013-12-03 18:14:00,
2013-12-03 13:19:00,35.5,32.8,30.02,South,187,0.0,2.9,90,0.28,,OVC,1.20,VWS V14.00,2013-12-03 18:19:00,
2013-12-03 13:24:00,35.4,32.5,30.02,South,187,0.0,2.9,89,0.36,,OVC,1.30,VWS V14.00,2013-12-03 18:24:00,
2013-12-03 13:29:00,35.4,32.5,30.02,South,187,0.0,0.0,89,0.33,,OVC,1.30,VWS V14.00,2013-12-03 18:29:00,
2013-12-03 13:30:00,35.5,32.6,30.02,South,187,0.0,2.9,89,0.34,,OVC,1.30,VWS V14.00,2013-12-03 18:30:00,
2013-12-03 13:34:00,35.4,32.2,30.02,NNE,25,0.0,2.0,88,0.30,,OVC,1.30,VWS V14.00,2013-12-03 18:34:00,
2013-12-03 13:39:00,35.4,32.5,30.02,NNE,25,0.0,2.0,89,0.28,,OVC,1.30,VWS V14.00,2013-12-03 18:39:00,
2013-12-03 13:44:00,35.4,32.2,30.02,NNE,25,0.0,2.0,88,0.35,,OVC,1.40,VWS V14.00,2013-12-03 18:44:00,
2013-12-03 13:58:00,35.3,32.2,30.02,NNE,25,0.0,0.0,88,0.00,,OVC,1.40,VWS V14.00,2013-12-03 18:58:00,
2013-12-03 14:04:00,35.2,32.1,30.02,NNE,25,0.0,0.0,88,0.10,,OVC,1.50,VWS V14.00,2013-12-03 19:04:00,
2013-12-03 14:09:00,35.2,32.1,30.02,NNE,25,0.0,0.0,88,0.09,,OVC,1.50,VWS V14.00,2013-12-03 19:09:00,
2013-12-03 14:14:00,35.1,31.9,30.02,NNE,25,0.0,0.0,88,0.08,,OVC,1.50,VWS V14.00,2013-12-03 19:14:00,
2013-12-03 14:19:00,35.1,31.8,30.02,NNE,25,0.0,0.0,88,0.08,,OVC,1.50,VWS V14.00,2013-12-03 19:19:00,
2013-12-03 14:24:00,35.2,32.0,30.03,NNE,25,0.0,0.0,88,0.07,,OVC,1.50,VWS V14.00,2013-12-03 19:24:00,
2013-12-03 14:29:00,35.1,31.9,30.03,NNE,25,0.0,0.0,88,0.06,,OVC,1.50,VWS V14.00,2013-12-03 19:29:00,
2013-12-03 14:34:00,35.1,31.9,30.03,NNE,25,0.0,0.0,88,0.15,,OVC,1.60,VWS V14.00,2013-12-03 19:34:00,
2013-12-03 14:39:00,35.2,32.0,30.03,NNE,25,0.0,0.0,88,0.14,,OVC,1.60,VWS V14.00,2013-12-03 19:39:00,
2013-12-03 14:44:00,35.3,32.1,30.03,NNE,25,0.0,0.0,88,0.13,,OVC,1.60,VWS V14.00,2013-12-03 19:44:00,
2013-12-03 14:49:00,35.4,32.2,30.03,NNE,25,0.0,0.0,88,0.12,,OVC,1.60,VWS V14.00,2013-12-03 19:49:00,
2013-12-03 14:54:00,35.4,32.2,30.04,NNE,25,0.0,0.0,88,0.11,,OVC,1.60,VWS V14.00,2013-12-03 19:54:00,
2013-12-03 14:59:00,35.4,32.2,30.04,NNE,25,0.0,0.0,88,0.10,,OVC,1.60,VWS V14.00,2013-12-03 19:59:00,
2013-12-03 15:04:00,35.3,32.0,30.04,NNE,25,0.0,0.0,88,0.09,,OVC,1.60,VWS V14.00,2013-12-03 20:04:00,
2013-12-03 15:09:00,35.3,32.1,30.04,NNE,25,0.0,0.0,88,0.09,,OVC,1.60,VWS V14.00,2013-12-03 20:09:00,
2013-12-03 15:14:00,35.2,32.0,30.04,NNE,25,0.0,0.0,88,0.18,,OVC,1.70,VWS V14.00,2013-12-03 20:14:00,
2013-12-03 15:19:00,35.1,32.0,30.04,NNE,25,0.0,0.0,88,0.16,,OVC,1.70,VWS V14.00,2013-12-03 20:19:00,
2013-12-03 15:24:00,35.1,32.0,30.04,NNE,25,0.0,0.0,88,0.15,,OVC,1.70,VWS V14.00,2013-12-03 20:24:00,
2013-12-03 15:29:00,35.1,32.0,30.04,NNE,25,0.0,0.0,88,0.14,,OVC,1.70,VWS V14.00,2013-12-03 20:29:00,
2013-12-03 15:34:00,35.0,31.9,30.05,NNE,25,0.0,0.0,88,0.13,,OVC,1.70,VWS V14.00,2013-12-03 20:34:00,
2013-12-03 15:39:00,34.8,31.8,30.04,NNE,25,0.0,0.0,89,0.12,,OVC,1.70,VWS V14.00,2013-12-03 20:39:00,
2013-12-03 15:44:00,34.8,31.9,30.05,NNE,25,0.0,0.0,89,0.11,,OVC,1.70,VWS V14.00,2013-12-03 20:44:00,
2013-12-03 15:49:00,34.8,31.9,30.05,NNE,25,0.0,0.0,89,0.10,,OVC,1.70,VWS V14.00,2013-12-03 20:49:00,
2013-12-03 15:54:00,34.8,32.0,30.05,NNE,25,0.0,0.0,89,0.09,,OVC,1.70,VWS V14.00,2013-12-03 20:54:00,
2013-12-03 15:59:00,34.8,32.1,30.05,NNE,25,0.0,0.0,90,0.08,,OVC,1.70,VWS V14.00,2013-12-03 20:59:00,
2013-12-03 16:04:00,34.8,32.1,30.05,NNE,25,0.0,0.0,90,0.08,,OVC,1.70,VWS V14.00,2013-12-03 21:04:00,
2013-12-03 16:09:00,34.7,32.0,30.05,NNE,25,0.0,0.0,90,0.07,,OVC,1.70,VWS V14.00,2013-12-03 21:09:00,
2013-12-03 16:14:00,34.6,32.0,30.05,NNE,25,0.0,0.0,90,0.07,,OVC,1.70,VWS V14.00,2013-12-03 21:14:00,
2013-12-03 16:19:00,34.4,31.8,30.05,NNE,25,0.0,0.0,90,0.06,,OVC,1.70,VWS V14.00,2013-12-03 21:19:00,
2013-12-03 16:24:00,34.4,31.9,30.05,NNE,25,0.0,0.0,90,0.06,,OVC,1.70,VWS V14.00,2013-12-03 21:24:00,
2013-12-03 16:29:00,34.3,31.8,30.05,NNE,25,0.0,0.0,91,0.05,,OVC,1.70,VWS V14.00,2013-12-03 21:29:00,
2013-12-03 16:34:00,34.3,31.8,30.05,NNE,25,0.0,0.0,91,0.05,,OVC,1.70,VWS V14.00,2013-12-03 21:34:00,
2013-12-03 16:39:00,34.0,31.6,30.05,NNE,25,0.0,0.0,91,0.04,,OVC,1.70,VWS V14.00,2013-12-03 21:39:00,
2013-12-03 16:44:00,34.0,31.6,30.06,NNE,25,0.0,0.0,91,0.04,,OVC,1.70,VWS V14.00,2013-12-03 21:44:00,
2013-12-03 16:49:00,34.0,31.7,30.06,NNE,25,0.0,0.0,91,0.04,,OVC,1.70,VWS V14.00,2013-12-03 21:49:00,
2013-12-03 16:54:00,33.9,31.7,30.06,NNE,25,0.0,0.0,92,0.03,,OVC,1.70,VWS V14.00,2013-12-03 21:54:00,
2013-12-03 16:59:00,33.7,31.6,30.06,NNE,25,0.0,0.0,92,0.03,,OVC,1.70,VWS V14.00,2013-12-03 21:59:00,
2013-12-03 17:04:00,33.7,31.6,30.06,NNE,25,0.0,0.0,92,0.03,,OVC,1.70,VWS V14.00,2013-12-03 22:04:00,
2013-12-03 17:09:00,33.6,31.5,30.06,NNE,25,0.0,0.0,92,0.03,,OVC,1.70,VWS V14.00,2013-12-03 22:09:00,
2013-12-03 17:14:00,33.6,31.5,30.06,NNE,25,0.0,0.0,92,0.02,,OVC,1.70,VWS V14.00,2013-12-03 22:14:00,
2013-12-03 17:19:00,33.5,31.5,30.06,NNE,25,0.0,0.0,92,0.02,,OVC,1.70,VWS V14.00,2013-12-03 22:19:00,
2013-12-03 17:24:00,33.4,31.4,30.07,NNE,25,0.0,0.0,92,0.02,,OVC,1.70,VWS V14.00,2013-12-03 22:24:00,
2013-12-03 17:29:00,33.4,31.4,30.07,NNE,25,0.0,0.0,92,0.02,,OVC,1.70,VWS V14.00,2013-12-03 22:29:00,
2013-12-03 17:34:00,33.2,31.3,30.07,NNE,25,0.0,0.0,92,0.02,,OVC,1.70,VWS V14.00,2013-12-03 22:34:00,
2013-12-03 17:39:00,33.2,31.3,30.07,NNE,25,0.0,0.0,93,0.02,,OVC,1.70,VWS V14.00,2013-12-03 22:39:00,
2013-12-03 17:44:00,33.2,31.3,30.07,NNE,25,0.0,0.0,93,0.01,,OVC,1.70,VWS V14.00,2013-12-03 22:44:00,
2013-12-03 17:49:00,33.1,31.2,30.07,NNE,25,0.0,0.0,93,0.01,,OVC,1.70,VWS V14.00,2013-12-03 22:49:00,
2013-12-03 17:54:00,33.1,31.2,30.07,NNE,25,0.0,0.0,93,0.01,,OVC,1.70,VWS V14.00,2013-12-03 22:54:00,
2013-12-03 17:59:00,33.0,31.2,30.07,NNE,25,0.0,0.0,93,0.01,,OVC,1.70,VWS V14.00,2013-12-03 22:59:00,
2013-12-03 18:04:00,33.0,31.2,30.07,NNE,25,0.0,0.0,93,0.01,,OVC,1.70,VWS V14.00,2013-12-03 23:04:00,
2013-12-03 18:09:00,33.0,31.3,30.07,NNE,25,0.0,0.0,93,0.01,,OVC,1.70,VWS V14.00,2013-12-03 23:09:00,
2013-12-03 18:14:00,32.9,31.2,30.07,NNE,25,0.0,0.0,93,0.01,,OVC,1.70,VWS V14.00,2013-12-03 23:14:00,
2013-12-03 18:19:00,32.9,31.2,30.08,NNE,25,0.0,0.0,93,0.01,,OVC,1.70,VWS V14.00,2013-12-03 23:19:00,
2013-12-03 18:24:00,33.0,31.2,30.08,NNE,25,0.0,0.0,93,0.01,,OVC,1.70,VWS V14.00,2013-12-03 23:24:00,
2013-12-03 18:29:00,33.0,31.2,30.08,NNE,25,0.0,0.0,93,0.01,,OVC,1.70,VWS V14.00,2013-12-03 23:29:00,
2013-12-03 18:34:00,33.0,31.2,30.08,NNE,25,0.0,0.0,93,0.01,,OVC,1.70,VWS V14.00,2013-12-03 23:34:00,
2013-12-03 18:39:00,32.8,30.8,30.08,NNE,25,0.0,0.0,92,0.01,,OVC,1.70,VWS V14.00,2013-12-03 23:39:00,
2013-12-03 18:44:00,32.9,30.4,30.08,NNE,25,0.0,0.0,90,0.01,,OVC,1.70,VWS V14.00,2013-12-03 23:44:00,
2013-12-03 18:49:00,33.0,30.4,30.08,NNW,330,0.0,2.3,90,0.00,,OVC,1.70,VWS V14.00,2013-12-03 23:49:00,
2013-12-03 18:54:00,33.1,30.4,30.08,NNW,340,0.0,2.3,90,0.00,,OVC,1.70,VWS V14.00,2013-12-03 23:54:00,
2013-12-03 18:59:00,33.1,30.5,30.08,NNW,340,0.0,0.0,90,0.00,,OVC,1.70,VWS V14.00,2013-12-03 23:59:00,
2013-12-03 19:04:00,33.1,30.6,30.09,NNW,340,0.0,0.0,90,0.00,,OVC,1.70,VWS V14.00,2013-12-04 00:04:00,
2013-12-03 19:09:00,33.0,30.6,30.08,NNW,340,0.0,0.0,91,0.00,,OVC,1.70,VWS V14.00,2013-12-04 00:09:00,
2013-12-03 19:14:00,32.9,30.6,30.08,NNW,340,0.0,0.0,91,0.00,,OVC,1.70,VWS V14.00,2013-12-04 00:14:00,
2013-12-03 19:19:00,32.8,30.6,30.08,NNW,340,0.0,0.0,91,0.00,,OVC,1.70,VWS V14.00,2013-12-04 00:19:00,
2013-12-03 19:24:00,32.7,30.5,30.08,NNW,340,0.0,0.0,92,0.00,,OVC,1.70,VWS V14.00,2013-12-04 00:24:00,
2013-12-03 19:29:00,32.5,30.4,30.08,NNW,340,0.0,0.0,92,0.00,,OVC,1.70,VWS V14.00,2013-12-04 00:29:00,
2013-12-03 19:34:00,32.5,30.5,30.08,NNW,340,0.0,0.0,92,0.00,,OVC,1.70,VWS V14.00,2013-12-04 00:34:00,
2013-12-03 19:39:00,32.5,30.6,30.08,NNW,340,0.0,0.0,92,0.00,,OVC,1.70,VWS V14.00,2013-12-04 00:39:00,
2013-12-03 19:44:00,32.4,30.5,30.09,NNW,340,0.0,0.0,93,0.00,,OVC,1.70,VWS V14.00,2013-12-04 00:44:00,
2013-12-03 19:49:00,32.2,30.4,30.09,NNW,340,0.0,0.0,93,0.00,,OVC,1.70,VWS V14.00,2013-12-04 00:49:00,
2013-12-03 19:54:00,32.1,30.3,30.09,NNW,340,0.0,0.0,93,0.00,,OVC,1.70,VWS V14.00,2013-12-04 00:54:00,
2013-12-03 19:59:00,32.0,30.2,30.09,NNW,340,0.0,0.0,93,0.00,,OVC,1.70,VWS V14.00,2013-12-04 00:59:00,
2013-12-03 20:04:00,31.9,30.1,30.09,NNW,340,0.0,0.0,93,0.00,,OVC,1.70,VWS V14.00,2013-12-04 01:04:00,
2013-12-03 20:09:00,31.8,30.0,30.08,NNW,340,0.0,0.0,93,0.00,,OVC,1.70,VWS V14.00,2013-12-04 01:09:00,
2013-12-03 20:14:00,31.6,29.8,30.09,NNW,340,0.0,0.0,93,0.00,,OVC,1.70,VWS V14.00,2013-12-04 01:14:00,
2013-12-03 20:19:00,31.4,29.6,30.09,NNW,340,0.0,0.0,93,0.00,,OVC,1.70,VWS V14.00,2013-12-04 01:19:00,
2013-12-03 20:24:00,31.3,29.6,30.09,NNW,340,0.0,0.0,93,0.00,,OVC,1.70,VWS V14.00,2013-12-04 01:24:00,
2013-12-03 20:29:00,31.1,29.4,30.08,NNW,340,0.0,0.0,93,0.00,,OVC,1.70,VWS V14.00,2013-12-04 01:29:00,
2013-12-03 20:34:00,31.1,29.5,30.09,NNW,340,0.0,0.0,94,0.00,,OVC,1.70,VWS V14.00,2013-12-04 01:34:00,
2013-12-03 20:39:00,30.9,29.3,30.09,NNW,340,0.0,0.0,94,0.00,,OVC,1.70,VWS V14.00,2013-12-04 01:39:00,
2013-12-03 20:44:00,30.9,29.3,30.09,NNW,340,0.0,0.0,94,0.00,,OVC,1.70,VWS V14.00,2013-12-04 01:44:00,
2013-12-03 20:49:00,30.9,29.3,30.09,NNW,340,0.0,0.0,94,0.00,,OVC,1.70,VWS V14.00,2013-12-04 01:49:00,
2013-12-03 20:54:00,30.8,29.2,30.09,NNW,340,0.0,0.0,94,0.00,,OVC,1.70,VWS V14.00,2013-12-04 01:54:00,
2013-12-03 20:59:00,30.7,29.1,30.10,NNW,340,0.0,0.0,94,0.00,,OVC,1.70,VWS V14.00,2013-12-04 01:59:00,
2013-12-03 21:04:00,30.5,29.0,30.10,NNW,340,0.0,0.0,94,0.00,,OVC,1.70,VWS V14.00,2013-12-04 02:04:00,
2013-12-03 21:09:00,30.4,28.9,30.10,NNW,340,0.0,0.0,94,0.00,,OVC,1.70,VWS V14.00,2013-12-04 02:09:00,
2013-12-03 21:15:00,30.2,28.6,30.10,NNW,340,0.0,0.0,94,0.00,,OVC,1.70,VWS V14.00,2013-12-04 02:15:00,
2013-12-03 21:20:00,29.9,28.3,30.10,NNW,340,0.0,0.0,94,0.00,,OVC,1.70,VWS V14.00,2013-12-04 02:20:00,
2013-12-03 21:25:00,29.7,28.2,30.10,NNW,340,0.0,0.0,94,0.00,,OVC,1.70,VWS V14.00,2013-12-04 02:25:00,
2013-12-03 21:30:00,29.4,27.9,30.10,NNW,340,0.0,0.0,94,0.00,,OVC,1.70,VWS V14.00,2013-12-04 02:30:00,
2013-12-03 21:35:00,29.2,27.7,30.11,NNW,340,0.0,0.0,94,0.00,,OVC,1.70,VWS V14.00,2013-12-04 02:35:00,
2013-12-03 21:40:00,29.0,27.5,30.10,NNW,340,0.0,0.0,94,0.00,,OVC,1.70,VWS V14.00,2013-12-04 02:40:00,
2013-12-03 21:45:00,28.9,27.5,30.10,NNW,340,0.0,0.0,94,0.00,,OVC,1.70,VWS V14.00,2013-12-04 02:45:00,
2013-12-03 21:50:00,28.7,27.2,30.11,NNW,340,0.0,0.0,94,0.00,,OVC,1.70,VWS V14.00,2013-12-04 02:50:00,
2013-12-03 21:55:00,28.5,27.1,30.10,NNW,340,0.0,0.0,94,0.00,,OVC,1.70,VWS V14.00,2013-12-04 02:55:00,
2013-12-03 22:00:00,28.3,26.9,30.10,NNW,340,0.0,0.0,94,0.00,,OVC,1.70,VWS V14.00,2013-12-04 03:00:00,
2013-12-03 22:05:00,27.9,26.5,30.10,NNW,340,0.0,0.0,94,0.00,,OVC,1.70,VWS V14.00,2013-12-04 03:05:00,
2013-12-03 22:10:00,27.8,26.4,30.10,NNW,340,0.0,0.0,94,0.00,,OVC,1.70,VWS V14.00,2013-12-04 03:10:00,
2013-12-03 22:15:00,27.7,26.4,30.10,NNW,340,0.0,0.0,95,0.00,,OVC,1.70,VWS V14.00,2013-12-04 03:15:00,
2013-12-03 22:20:00,27.5,26.2,30.10,NNW,340,0.0,0.0,95,0.00,,OVC,1.70,VWS V14.00,2013-12-04 03:20:00,
2013-12-03 22:25:00,27.4,26.1,30.09,NNW,340,0.0,0.0,95,0.00,,OVC,1.70,VWS V14.00,2013-12-04 03:25:00,
2013-12-03 22:30:00,27.2,26.0,30.10,NNW,340,0.0,0.0,95,0.00,,OVC,1.70,VWS V14.00,2013-12-04 03:30:00,
2013-12-03 22:35:00,27.4,26.2,30.10,NNW,340,0.0,0.0,95,0.00,,OVC,1.70,VWS V14.00,2013-12-04 03:35:00,
2013-12-03 22:40:00,27.3,26.1,30.10,NNW,340,0.0,0.0,95,0.00,,OVC,1.70,VWS V14.00,2013-12-04 03:40:00,
2013-12-03 22:45:00,27.1,25.9,30.10,NNW,340,0.0,0.0,95,0.00,,OVC,1.70,VWS V14.00,2013-12-04 03:45:00,
2013-12-03 22:50:00,26.8,25.6,30.10,NNW,340,0.0,0.0,95,0.00,,OVC,1.70,VWS V14.00,2013-12-04 03:50:00,
2013-12-03 22:55:00,26.5,25.3,30.10,NNW,340,0.0,0.0,95,0.00,,OVC,1.70,VWS V14.00,2013-12-04 03:55:00,
2013-12-03 23:00:00,26.2,25.0,30.10,NNW,340,0.0,0.0,95,0.00,,OVC,1.70,VWS V14.00,2013-12-04 04:00:00,
2013-12-03 23:05:00,26.0,24.8,30.10,NNW,340,0.0,0.0,95,0.00,,OVC,1.70,VWS V14.00,2013-12-04 04:05:00,
2013-12-03 23:10:00,25.9,24.7,30.10,NNW,340,0.0,0.0,95,0.00,,OVC,1.70,VWS V14.00,2013-12-04 04:10:00,
2013-12-03 23:15:00,25.8,24.6,30.10,NNW,340,0.0,0.0,95,0.00,,OVC,1.70,VWS V14.00,2013-12-04 04:15:00,
2013-12-03 23:20:00,25.6,24.4,30.10,NNW,340,0.0,0.0,95,0.00,,OVC,1.70,VWS V14.00,2013-12-04 04:20:00,
2013-12-03 23:25:00,25.2,24.0,30.11,NNW,340,0.0,0.0,95,0.00,,OVC,1.70,VWS V14.00,2013-12-04 04:25:00,
2013-12-03 23:30:00,25.0,23.8,30.11,NNW,340,0.0,0.0,95,0.00,,OVC,1.70,VWS V14.00,2013-12-04 04:30:00,
2013-12-03 23:35:00,24.8,23.6,30.11,NNW,340,0.0,0.0,95,0.00,,OVC,1.70,VWS V14.00,2013-12-04 04:35:00,
2013-12-03 23:40:00,24.7,23.5,30.11,NNW,340,0.0,0.0,95,0.00,,OVC,1.70,VWS V14.00,2013-12-04 04:40:00,
2013-12-03 23:45:00,24.6,23.5,30.11,NNW,340,0.0,0.0,95,0.00,,OVC,1.70,VWS V14.00,2013-12-04 04:45:00,
2013-12-03 23:50:00,24.4,23.2,30.10,NNW,340,0.0,0.0,95,0.00,,OVC,1.70,VWS V14.00,2013-12-04 04:50:00,
2013-12-03 23:55:00,24.4,23.3,30.10,NNW,340,0.0,0.0,95,0.00,,OVC,1.70,VWS V14.00,2013-12-04 04:55:00,